Content
SEND FEEDBACK

Daily
Averages
Monthly
Summary
United States of America

ACHANG BAY, GUAM


Home > North America > United States > Guam
Elevation: 30 feet     Latitude: 13 16N     Longitude: 144 45E

WEATHER
 
SELECT A DAY
Number of Records: 354,701;   Date Range: 1/1/95 - 11/26/14
 
SHARE

PRINT THIS DATA

[ ← Previous Day ]
WEATHER ALMANAC - MAY 1, 2013
[ Next Day → ]
[ °C ]   °F
Weather ElementAverageHighLow
Temperature79.4 °F86 °F (12:27 pm)75.2 °F (9:15 pm)
Dewpoint75 °F77 °F (1:30 pm)73.4 °F (2:21 am)
Humidity86.8 %100 % (9:15 pm)70 % (12:27 pm)
Barometer29.80 in29.84 in (10:17 pm)29.73 in (3:55 pm)
Wind Speed12.4 mph17.3 mph (8:50 am)
Wind Gust23 mph (1:55 pm)
Weather ElementAverage
Visibility8.8 mi
Wind DirectionE (91.4 °)

Weather ElementTotal
Precipitation0.40 in
Cooling Degree Days15.6 (Base 65)
Growing Degree Days30.6 (Base 50)
Averaged from 155 records on May 1, 2013
WEATHER CONDITIONS BREAKOUT
WIND DIRECTION BREAKOUT
WEATHER BY HOUR - MAY 1, 2013
[ °C ]   °F
Local TimeTemperatureDewpointHumidityBarometerVisibilityWind DirectionWind SpeedGust SpeedPrecipitationEventsConditions
12:53 AM78.8 °F75.2 °F89 %29.83 in10.0 miEast (80°)10.4 mphScattered Clouds
12:55 AM78.4 °F75.0 °F89 %29.83 in10.0 miEast (90°)10.4 mphScattered Clouds
1:02 AM78.8 °F75.2 °F89 %29.83 in10.0 miEast (80°)12.7 mphMostly Cloudy
1:12 AM78.8 °F75.2 °F89 %29.82 in10.0 miEast (80°)11.5 mphScattered Clouds
1:26 AM78.8 °F75.2 °F89 %29.82 in10.0 miEast (80°)9.2 mphMostly Cloudy
1:34 AM78.8 °F75.2 °F89 %29.81 in10.0 miEast (80°)8.1 mphMostly Cloudy
1:44 AM78.8 °F75.2 °F89 %29.81 in10.0 miEast (80°)11.5 mphMostly Cloudy
1:51 AM78.8 °F75.2 °F89 %29.81 in10.0 miENE (70°)10.4 mphMostly Cloudy
1:54 AM78.8 °F75.2 °F89 %29.81 in10.0 miENE (70°)12.7 mphMostly Cloudy
1:55 AM78.1 °F75.0 °F90 %29.80 in10.0 miENE (70°)10.4 mphMostly Cloudy
1:58 AM78.8 °F75.2 °F89 %29.80 in10.0 miENE (60°)10.4 mphMostly Cloudy
2:09 AM77.0 °F75.2 °F94 %29.80 in9.0 miENE (70°)13.8 mphRainLight Rain
2:21 AM77.0 °F73.4 °F89 %29.80 in10.0 miENE (70°)9.2 mphPartly Cloudy
2:55 AM77.5 °F75.0 °F92 %29.79 in10.0 miENE (70°)11.5 mph0.00 inPartly Cloudy
3:23 AM78.8 °F75.2 °F89 %29.78 in10.0 miEast (80°)8.1 mphMostly Cloudy
3:33 AM78.8 °F75.2 °F89 %29.78 in10.0 miENE (70°)13.8 mphMostly Cloudy
3:46 AM78.8 °F75.2 °F89 %29.78 in10.0 miEast (80°)11.5 mphMostly Cloudy
3:50 AM78.8 °F75.2 °F89 %29.78 in10.0 miEast (80°)11.5 mphMostly Cloudy
3:55 AM78.3 °F75.2 °F90 %29.78 in10.0 miEast (80°)10.4 mphMostly Cloudy
4:02 AM78.8 °F75.2 °F89 %29.78 in10.0 miEast (80°)11.5 mphLight Drizzle
4:10 AM78.8 °F75.2 °F89 %29.78 in10.0 miEast (100°)12.7 mphLight Drizzle
4:12 AM78.8 °F75.2 °F89 %29.78 in10.0 miEast (100°)10.4 mphScattered Clouds
4:41 AM78.8 °F75.2 °F89 %29.78 in10.0 miEast (90°)13.8 mphMostly Cloudy
4:43 AM78.8 °F75.2 °F89 %29.78 in10.0 miEast (90°)11.5 mphScattered Clouds
4:55 AM78.4 °F74.7 °F88 %29.78 in10.0 miEast (90°)12.7 mph0.00 inScattered Clouds
4:59 AM78.8 °F75.2 °F89 %29.78 in10.0 miEast (90°)11.5 mphMostly Cloudy
5:01 AM78.8 °F75.2 °F89 %29.79 in10.0 miEast (90°)12.7 mphMostly Cloudy
5:02 AM78.8 °F75.2 °F89 %29.78 in10.0 miEast (90°)13.8 mphMostly Cloudy
5:04 AM78.8 °F75.2 °F89 %29.78 in10.0 miEast (90°)12.7 mphMostly Cloudy
5:07 AM78.8 °F75.2 °F89 %29.79 in10.0 miEast (90°)12.7 mphMostly Cloudy
5:08 AM78.8 °F75.2 °F89 %29.79 in10.0 miEast (90°)12.7 mphMostly Cloudy
5:12 AM78.8 °F75.2 °F89 %29.79 in10.0 miEast (90°)13.8 mphScattered Clouds
5:24 AM78.8 °F75.2 °F89 %29.79 in10.0 miEast (90°)13.8 mphMostly Cloudy
5:40 AM78.8 °F75.2 °F89 %29.79 in10.0 miEast (90°)12.7 mphScattered Clouds
5:43 AM78.8 °F75.2 °F89 %29.79 in10.0 miEast (100°)10.4 mphMostly Cloudy
5:45 AM78.8 °F75.2 °F89 %29.79 in10.0 miEast (90°)12.7 mphMostly Cloudy
5:52 AM78.8 °F75.2 °F89 %29.80 in10.0 miEast (90°)9.2 mphMostly Cloudy
5:54 AM78.8 °F75.2 °F89 %29.80 in10.0 miEast (90°)11.5 mphMostly Cloudy
5:55 AM78.4 °F74.8 °F89 %29.80 in10.0 miEast (90°)11.5 mphMostly Cloudy
5:57 AM78.8 °F75.2 °F89 %29.80 in10.0 miEast (90°)11.5 mphMostly Cloudy
6:00 AM78.8 °F75.2 °F89 %29.80 in10.0 miEast (100°)11.5 mphMostly Cloudy
6:04 AM78.8 °F75.2 °F89 %29.80 in10.0 miEast (90°)11.5 mphMostly Cloudy
6:07 AM78.8 °F75.2 °F89 %29.80 in10.0 miEast (80°)11.5 mphMostly Cloudy
6:15 AM78.8 °F75.2 °F89 %29.80 in10.0 miEast (90°)11.5 mphScattered Clouds
6:22 AM78.8 °F75.2 °F89 %29.80 in10.0 miEast (90°)12.7 mphMostly Cloudy
6:48 AM78.8 °F75.2 °F89 %29.80 in10.0 miEast (80°)11.5 mphMostly Cloudy
6:53 AM78.8 °F75.2 °F89 %29.80 in10.0 miENE (70°)15.0 mphMostly Cloudy
6:55 AM79.2 °F74.8 °F87 %29.80 in10.0 miEast (80°)13.8 mphMostly Cloudy
7:02 AM78.8 °F75.2 °F89 %29.80 in10.0 miEast (80°)12.7 mphMostly Cloudy
7:32 AM80.6 °F75.2 °F84 %29.81 in10.0 miEast (90°)11.5 mphMostly Cloudy
7:33 AM80.6 °F75.2 °F84 %29.81 in10.0 miEast (80°)11.5 mphMostly Cloudy
7:38 AM80.6 °F75.2 °F84 %29.81 in10.0 miEast (80°)15.0 mphMostly Cloudy
7:45 AM80.6 °F75.2 °F84 %29.81 in10.0 miEast (80°)12.7 mphScattered Clouds
7:48 AM80.6 °F75.2 °F84 %29.81 in10.0 miENE (70°)11.5 mphMostly Cloudy
7:52 AM80.6 °F75.2 °F84 %29.81 in10.0 miEast (80°)11.5 mphScattered Clouds
7:55 AM80.2 °F75.2 °F85 %29.81 in10.0 miEast (80°)12.7 mphScattered Clouds
7:56 AM80.6 °F75.2 °F84 %29.81 in10.0 miEast (80°)13.8 mphMostly Cloudy
8:13 AM80.6 °F75.2 °F84 %29.81 in10.0 miEast (80°)13.8 mphMostly Cloudy
8:21 AM80.6 °F75.2 °F84 %29.81 in10.0 miEast (90°)13.8 mphMostly Cloudy
8:24 AM80.6 °F75.2 °F84 %29.81 in10.0 miEast (80°)15.0 mphScattered Clouds
8:44 AM80.6 °F75.2 °F84 %29.81 in10.0 miENE (70°)15.0 mphMostly Cloudy
8:47 AM80.6 °F75.2 °F84 %29.81 in10.0 miENE (70°)15.0 mph21.9 mphMostly Cloudy
8:50 AM80.6 °F75.2 °F84 %29.81 in10.0 miEast (80°)17.3 mphMostly Cloudy
8:55 AM81.0 °F74.5 °F81 %29.81 in10.0 miEast (80°)15.0 mphMostly Cloudy
8:57 AM80.6 °F75.2 °F84 %29.81 in10.0 miEast (80°)12.7 mphScattered Clouds
8:58 AM80.6 °F75.2 °F84 %29.81 in10.0 miEast (80°)13.8 mphMostly Cloudy
9:00 AM82.4 °F75.2 °F79 %29.81 in10.0 miEast (80°)13.8 mphScattered Clouds
9:01 AM82.4 °F75.2 °F79 %29.81 in10.0 miEast (80°)13.8 mphMostly Cloudy
9:04 AM82.4 °F75.2 °F79 %29.81 in10.0 miENE (70°)15.0 mphScattered Clouds
9:07 AM82.4 °F75.2 °F79 %29.81 in10.0 miENE (70°)15.0 mphMostly Cloudy
9:11 AM82.4 °F75.2 °F79 %29.81 in10.0 miENE (70°)13.8 mphMostly Cloudy
9:12 AM82.4 °F75.2 °F79 %29.81 in10.0 miEast (80°)13.8 mphScattered Clouds
9:55 AM82.8 °F75.7 °F79 %29.81 in10.0 miEast (80°)16.1 mphScattered Clouds
10:15 AM84.2 °F75.2 °F74 %29.81 in10.0 miENE (70°)16.1 mphMostly Cloudy
10:17 AM84.2 °F75.2 °F74 %29.81 in10.0 miENE (70°)17.3 mphScattered Clouds
10:55 AM83.1 °F75.4 °F77 %29.80 in10.0 miEast (80°)16.1 mphScattered Clouds
11:08 AM82.4 °F75.2 °F79 %29.80 in10.0 miENE (60°)16.1 mphMostly Cloudy
11:10 AM82.4 °F75.2 °F79 %29.80 in10.0 miENE (70°)16.1 mphScattered Clouds
11:24 AM84.2 °F75.2 °F74 %29.80 in10.0 miEast (80°)16.1 mphMostly Cloudy
11:34 AM84.2 °F75.2 °F74 %29.80 in10.0 miENE (70°)16.1 mphScattered Clouds
11:55 AM84.0 °F75.0 °F74 %29.79 in10.0 miENE (70°)16.1 mphScattered Clouds
12:18 PM84.2 °F75.2 °F74 %29.78 in10.0 miENE (70°)17.3 mph21.9 mphMostly Cloudy
12:21 PM84.2 °F75.2 °F74 %29.78 in10.0 miEast (80°)17.3 mphOvercast
12:27 PM86.0 °F75.2 °F70 %29.78 in10.0 miEast (90°)16.1 mphOvercast
12:32 PM84.2 °F75.2 °F74 %29.78 in10.0 miEast (90°)15.0 mphOvercast
12:35 PM86.0 °F75.2 °F70 %29.78 in10.0 miEast (80°)16.1 mphOvercast
12:55 PM84.4 °F75.7 °F75 %29.77 in10.0 miENE (70°)16.1 mphMostly Cloudy
1:30 PM86.0 °F77.0 °F74 %29.76 in10.0 miENE (70°)16.1 mphMostly Cloudy
1:40 PM84.2 °F77.0 °F79 %29.75 in10.0 miENE (70°)15.0 mphMostly Cloudy
1:48 PM84.2 °F77.0 °F79 %29.75 in10.0 miEast (80°)13.8 mphMostly Cloudy
1:55 PM84.6 °F76.1 °F76 %29.75 in10.0 miENE (70°)15.0 mph23.0 mphMostly Cloudy
2:10 PM84.2 °F75.2 °F74 %29.75 in10.0 miENE (70°)17.3 mph21.9 mphMostly Cloudy
2:21 PM84.2 °F75.2 °F74 %29.75 in10.0 miEast (80°)12.7 mphScattered Clouds
2:36 PM84.2 °F75.2 °F74 %29.74 in10.0 miENE (70°)17.3 mphMostly Cloudy
2:40 PM84.2 °F75.2 °F74 %29.74 in10.0 miENE (70°)16.1 mphMostly Cloudy
2:52 PM84.2 °F75.2 °F74 %29.74 in10.0 miEast (90°)15.0 mphMostly Cloudy
2:55 PM84.9 °F74.8 °F72 %29.74 in10.0 miEast (80°)15.0 mphMostly Cloudy
3:03 PM84.2 °F73.4 °F70 %29.74 in10.0 miEast (90°)15.0 mph21.9 mphScattered Clouds
3:55 PM82.9 °F74.8 °F76 %29.73 in10.0 miEast (90°)13.8 mphScattered Clouds
4:17 PM84.2 °F75.2 °F74 %29.73 in10.0 miEast (80°)13.8 mphMostly Cloudy
4:20 PM82.4 °F75.2 °F79 %29.73 in10.0 miEast (90°)15.0 mphScattered Clouds
4:55 PM82.9 °F74.7 °F76 %29.74 in10.0 miEast (80°)13.8 mphPartly Cloudy
5:37 PM80.6 °F75.2 °F84 %29.75 in10.0 miEast (90°)15.0 mphMostly Cloudy
5:41 PM80.6 °F75.2 °F84 %29.75 in10.0 miEast (100°)13.8 mphScattered Clouds
5:55 PM81.0 °F74.1 °F80 %29.76 in10.0 miEast (100°)13.8 mphPartly Cloudy
6:55 PM80.4 °F75.0 °F84 %29.78 in10.0 miEast (100°)12.7 mphScattered Clouds
7:15 PM80.6 °F73.4 °F79 %29.78 in10.0 miEast (90°)10.4 mphMostly Cloudy
7:43 PM80.6 °F73.4 °F79 %29.80 in10.0 miEast (100°)11.5 mphMostly Cloudy
7:55 PM80.6 °F74.3 °F81 %29.80 in10.0 miEast (90°)11.5 mphMostly Cloudy
8:06 PM78.8 °F75.2 °F89 %29.81 in7.0 miESE (110°)15.0 mph21.9 mphRainLight Rain
8:07 PM78.8 °F75.2 °F89 %29.80 in5.0 miESE (110°)15.0 mph21.9 mphRainLight Rain
8:15 PM77.0 °F75.2 °F94 %29.81 in4.0 miESE (120°)13.8 mphRainLight Rain
8:16 PM77.0 °F75.2 °F94 %29.81 in4.0 miESE (120°)15.0 mphRainLight Rain
8:27 PM77.0 °F75.2 °F94 %29.81 in8.0 miSE (130°)12.7 mphOvercast
8:43 PM77.0 °F75.2 °F94 %29.81 in9.0 miSE (130°)13.8 mphOvercast
8:44 PM77.0 °F75.2 °F94 %29.81 in9.0 miSE (130°)12.7 mphRainLight Rain
8:49 PM77.0 °F75.2 °F94 %29.82 in9.0 miESE (120°)11.5 mphRainLight Rain
8:52 PM77.0 °F75.2 °F94 %29.82 in9.0 miSE (140°)12.7 mphRainLight Rain
8:55 PM76.5 °F74.7 °F94 %29.82 in10.0 miSE (130°)13.8 mph0.04 inRainLight Rain
9:01 PM77.0 °F75.2 °F94 %29.82 in9.0 miSE (140°)13.8 mphRainLight Rain
9:08 PM77.0 °F75.2 °F94 %29.83 in3.0 miESE (120°)11.5 mphRainHeavy Rain
9:09 PM77.0 °F75.2 °F94 %29.83 in3.0 miESE (120°)12.7 mphRainHeavy Rain
9:10 PM77.0 °F75.2 °F94 %29.83 in2.5 miESE (110°)16.1 mph21.9 mphRainRain
9:11 PM77.0 °F75.2 °F94 %29.83 in2.0 miESE (110°)17.3 mph21.9 mphRainRain
9:12 PM77.0 °F75.2 °F94 %29.83 in1.8 miESE (110°)15.0 mph21.9 mphRainRain
9:13 PM77.0 °F75.2 °F94 %29.82 in1.8 miESE (110°)13.8 mph21.9 mphRainRain
9:14 PM77.0 °F75.2 °F94 %29.82 in1.5 miESE (120°)12.7 mph21.9 mphRainRain
9:15 PM75.2 °F75.2 °F100 %29.82 in1.5 miESE (120°)12.7 mph21.9 mphRainRain
9:16 PM75.2 °F75.2 °F100 %29.82 in1.5 miESE (120°)12.7 mph21.9 mphRainRain
9:18 PM75.2 °F73.4 °F94 %29.82 in1.8 miESE (120°)11.5 mph21.9 mphRainRain
9:19 PM75.2 °F73.4 °F94 %29.82 in2.0 miESE (120°)11.5 mph21.9 mphRainRain
9:21 PM75.2 °F73.4 °F94 %29.82 in2.5 miESE (110°)10.4 mphRainRain
9:22 PM75.2 °F73.4 °F94 %29.82 in3.0 miESE (110°)10.4 mphRainLight Rain
9:50 PM77.0 °F75.2 °F94 %29.83 in8.0 miSE (130°)5.8 mphRainLight Rain
9:52 PM77.0 °F75.2 °F94 %29.83 in8.0 miSE (130°)4.6 mphRainLight Rain
9:55 PM76.5 °F75.2 °F96 %29.83 in8.0 miSE (130°)5.8 mph0.18 inRainLight Rain
10:05 PM75.2 °F75.2 °F100 %29.83 in10.0 miSSE (160°)8.1 mphOvercast
10:08 PM75.2 °F73.4 °F94 %29.83 in10.0 miSSE (160°)9.2 mphOvercast
10:09 PM75.2 °F73.4 °F94 %29.83 in10.0 miSSE (160°)8.1 mphOvercast
10:17 PM75.2 °F73.4 °F94 %29.84 in8.0 miSE (140°)8.1 mphRainLight Rain
10:26 PM75.2 °F73.4 °F94 %29.83 in4.0 miESE (110°)4.6 mphRainRain
10:30 PM75.2 °F73.4 °F94 %29.82 in6.0 miESE (110°)3.5 mphRainLight Rain
10:40 PM75.2 °F73.4 °F94 %29.82 in6.0 miEast (100°)5.8 mphRainRain
10:42 PM75.2 °F75.2 °F100 %29.82 in6.0 miEast (90°)5.8 mphRainLight Rain
10:47 PM75.2 °F75.2 °F100 %29.82 in7.0 miEast (100°)6.9 mphRainLight Rain
10:55 PM75.9 °F75.0 °F97 %29.82 in7.0 miEast (100°)8.1 mph0.07 inRainLight Rain
11:02 PM75.2 °F75.2 °F100 %29.82 in5.0 miEast (100°)8.1 mphRainLight Rain
11:08 PM75.2 °F75.2 °F100 %29.82 in8.0 miEast (90°)6.9 mphRainLight Rain
11:18 PM75.2 °F73.4 °F94 %29.81 in9.0 miEast (80°)6.9 mphRainLight Rain
11:21 PM75.2 °F73.4 °F94 %29.81 in8.0 miEast (80°)5.8 mphRainLight Rain
11:22 PM75.2 °F73.4 °F94 %29.81 in8.0 miEast (80°)5.8 mphRainLight Rain
11:34 PM77.0 °F75.2 °F94 %29.81 in7.0 miENE (70°)9.2 mphRainRain
11:50 PM77.0 °F75.2 °F94 %29.80 in5.0 miEast (80°)10.4 mphRainLight Rain
11:52 PM77.0 °F75.2 °F94 %29.80 in6.0 miEast (100°)10.4 mphRainLight Rain
11:55 PM76.1 °F74.8 °F96 %29.80 in8.0 miEast (100°)10.4 mph0.11 inRainLight Rain
Hourly data recorded from PGUA, located miles away from Achang Bay, Guam







STORIES FROM OUR PARTNERS